Regional Weather Roundup
Issued by NWS Green Bay, WI

Home | Current Version | Previous Version | Text Only | Print | Product List | Glossary On
Versions: 1 2 3 4 5 6 7 8 9 10 11 12 13 14 15 16 17 18 19 20 21 22 23 24 25 26 27 28 29 30 31 32 33 34 35 36 37 38 39 40 41 42 43 44 45 46 47 48 49 50
000
ASUS43 KGRB 231711
RWRGRB

NORTH-CENTRAL AND NORTHEAST WISCONSIN REGIONAL WEATHER ROUNDUP
NATIONAL WEATHER SERVICE GREEN BAY WI
1200 PM CDT TUE MAY 23 2017

WIZ005-009-010>012-018-019-231800-
NORTH CENTRAL WISCONSIN

CITY           SKY/WX    TMP DP  RH WIND       PRES   REMARKS
IRONWOOD       CLOUDY    54  45  71 CALM      29.86S
MANITOWISH WTR CLOUDY    51  49  93 SE6       29.85S
ARBOR VITAE    DRIZZLE   49  47  92 CALM      29.84F
EAGLE RIVER    CLOUDY    51  46  81 E5        29.85S
LAND O LAKES   CLOUDY    49  46  89 CALM      29.87F
RHINELANDER    CLOUDY    52  47  83 NE6       29.85S
PHILLIPS       CLOUDY    51  44  76 NE8       29.84S
ANTIGO         CLOUDY    51  44  76 E8        29.83S
TOMAHAWK       CLOUDY    50  47  88 NE5       29.84F
MERRILL        CLOUDY    54  47  78 NE10      29.83S
$$

WIZ013-073-231800-
NORTHEAST WISCONSIN

CITY           SKY/WX    TMP DP  RH WIND       PRES   REMARKS
IRON MOUNTAIN  CLOUDY    55  42  61 E7        29.83F
MARINETTE      CLOUDY    51  47  86 E8        29.83F
OCONTO         CLOUDY    51  48  89 N5        29.81F
$$

WIZ017-030-035>037-045-231800-
CENTRAL WISCONSIN

CITY           SKY/WX    TMP DP  RH WIND       PRES   REMARKS
MEDFORD        CLOUDY    53  47  79 NE10      29.80F
WAUSAU         CLOUDY    54  45  71 NE8       29.79F
MOSINEE        CLOUDY    54  45  71 NE16      29.80F
MARSHFIELD     CLOUDY    56  45  66 E13       29.77F
WISC RAPIDS    CLOUDY    56  48  74 E12       29.79S
STEVENS POINT  CLOUDY    53  44  72 NE13G22   29.79F
WAUPACA        CLOUDY    57  49  74 N9        29.79S
SHAWANO        CLOUDY    54  48  81 NE9       29.83R
CLINTONVILLE   CLOUDY    52  45  76 NE7       29.81S
WAUTOMA        NOT AVBL
$$

WIZ038-039-048-051-231800-
FOX VALLEY

CITY           SKY/WX    TMP DP  RH WIND       PRES   REMARKS
NWS GREEN BAY  CLOUDY    54  50  86 NE15      29.81R
APPLETON       PTSUNNY   55  46  71 NE12      29.77F
OSHKOSH        CLOUDY    60  54  80 NE9       29.76F
FOND DU LAC    LGT RAIN  63  52  67 N5        29.75F
$$

WIZ022-050-052-231800-
EAST CENTRAL WISCONSIN

CITY           SKY/WX    TMP DP  RH WIND       PRES   REMARKS
EPHRAIM        CLOUDY    52  48  85 NE10      29.82S
WASHINGTON ISL PTSUNNY   52  46  79 N8        29.83S
STURGEON BAY   CLOUDY    54  46  74 E9        29.82F
MANITOWOC        N/A     53  47  79 N6        29.80S
SHEBOYGAN      CLOUDY    56  52  86 NE12      29.78S
$$

LMZ563-521-522-541>543-231800-
LAKESHORE

STATION/POSITION TIME  TEMP    WIND        PRES    VSBY  WAVE
                       AIR SEA DIR/SP/G                  HT/PER
                 (UTC) (F)     (DEG/KT/KT) (MB)    (MI)  (FT/S)
SHEBOYGAN LKSHOR 1700   47     350/  9/  9 1008.5F
KEWAUNEE LKSHORE 1648   46      30/ 11/ 16 1009.1F
NORTHPORT PIER   1640   50      40/  7/ 10 1010.2F
N MID LAKE BUOY  1650   41 39   50/  8/  8 1011.3F         1
CHAMBERS ISLAND  1640   48      10/  8/ 12 1009.8F
MENOMINEE LKSHOR 1648           30/ 17/ 18 1008.9F
$$




USA.gov is the U.S. government's official web portal to all federal, state and local government web resources and services.